Time,TemperatureF,DewpointF,PressureIn,WindDirection,WindDirectionDegrees,WindSpeedMPH,WindSpeedGustMPH,Humidity,HourlyPrecipIn,Conditions,Clouds,dailyrainin,SolarRadiationWatts/m^2,SoftwareType,DateUTC
2014-02-14 00:00:00,30.8,29.3,28.35,ENE,76,1.0,2.0,94,0.00,,,0.00,0,Wunderground v.1.15,2014-02-14 05:00:00,
2014-02-14 00:05:00,30.8,29.3,28.36,ENE,76,1.0,2.0,94,0.00,,,0.00,0,Wunderground v.1.15,2014-02-14 05:05:00,
2014-02-14 00:10:00,30.7,29.2,28.36,ENE,76,1.0,1.0,94,0.00,,,0.00,0,Wunderground v.1.15,2014-02-14 05:10:00,
2014-02-14 00:15:00,30.8,29.3,28.36,ENE,76,0.0,1.0,94,0.00,,,0.00,0,Wunderground v.1.15,2014-02-14 05:15:00,
2014-02-14 00:20:00,30.9,29.4,28.37,ENE,76,0.0,0.0,94,0.00,,,0.00,0,Wunderground v.1.15,2014-02-14 05:20:00,
2014-02-14 00:25:00,30.9,29.4,28.37,ENE,76,0.0,0.0,94,0.00,,,0.00,0,Wunderground v.1.15,2014-02-14 05:25:00,
2014-02-14 00:30:00,31.0,29.5,28.37,ENE,76,0.0,0.0,94,0.00,,,0.00,0,Wunderground v.1.15,2014-02-14 05:30:00,
2014-02-14 00:40:00,31.0,29.5,28.36,ENE,76,0.0,0.0,94,0.00,,,0.00,0,Wunderground v.1.15,2014-02-14 05:40:00,
2014-02-14 00:45:00,31.0,29.5,28.35,ENE,76,0.0,0.0,94,0.00,,,0.00,0,Wunderground v.1.15,2014-02-14 05:45:00,
2014-02-14 00:50:00,30.9,29.6,28.34,ENE,76,0.0,0.0,95,0.00,,,0.00,0,Wunderground v.1.15,2014-02-14 05:50:00,
2014-02-14 00:55:00,30.9,29.6,28.33,ENE,76,0.0,0.0,95,0.00,,,0.00,0,Wunderground v.1.15,2014-02-14 05:55:00,
2014-02-14 01:05:00,30.8,29.5,28.30,ENE,76,0.0,1.0,95,0.00,,,0.00,0,Wunderground v.1.15,2014-02-14 06:05:00,
2014-02-14 01:15:00,30.7,29.4,28.27,East,86,1.0,1.0,95,0.00,,,0.00,0,Wunderground v.1.15,2014-02-14 06:15:00,
2014-02-14 01:25:00,30.5,29.0,28.27,ENE,66,1.0,1.0,94,0.00,,,0.00,0,Wunderground v.1.15,2014-02-14 06:25:00,
2014-02-14 01:35:00,30.4,28.9,28.26,ENE,67,0.0,0.0,94,0.00,,,0.00,0,Wunderground v.1.15,2014-02-14 06:35:00,
2014-02-14 01:45:00,30.3,29.0,28.25,ENE,67,0.0,1.0,95,0.00,,,0.00,0,Wunderground v.1.15,2014-02-14 06:45:00,
2014-02-14 01:50:00,30.3,29.0,28.25,ENE,67,0.0,0.0,95,0.00,,,0.00,0,Wunderground v.1.15,2014-02-14 06:50:00,
2014-02-14 02:00:00,30.2,28.9,28.25,ENE,67,0.0,0.0,95,0.00,,,0.00,0,Wunderground v.1.15,2014-02-14 07:00:00,
2014-02-14 02:10:00,30.2,28.9,28.24,ENE,67,0.0,0.0,95,0.00,,,0.00,0,Wunderground v.1.15,2014-02-14 07:10:00,
2014-02-14 02:20:00,30.1,28.8,28.22,East,98,0.0,1.0,95,0.00,,,0.00,0,Wunderground v.1.15,2014-02-14 07:20:00,
2014-02-14 02:30:00,30.0,28.7,28.22,ENE,78,0.0,0.0,95,0.00,,,0.00,0,Wunderground v.1.15,2014-02-14 07:30:00,
2014-02-14 02:40:00,30.0,28.7,28.22,ENE,78,0.0,0.0,95,0.00,,,0.00,0,Wunderground v.1.15,2014-02-14 07:40:00,
2014-02-14 02:45:00,30.0,28.7,28.22,ENE,78,0.0,0.0,95,0.00,,,0.00,0,Wunderground v.1.15,2014-02-14 07:45:00,
2014-02-14 02:55:00,30.0,28.7,28.22,ENE,78,0.0,0.0,95,0.00,,,0.00,0,Wunderground v.1.15,2014-02-14 07:55:00,
2014-02-14 03:00:00,30.0,28.7,28.22,ENE,78,0.0,0.0,95,0.00,,,0.00,0,Wunderground v.1.15,2014-02-14 08:00:00,
2014-02-14 03:10:00,30.0,28.7,28.22,ENE,78,0.0,1.0,95,0.00,,,0.00,0,Wunderground v.1.15,2014-02-14 08:10:00,
2014-02-14 03:20:00,30.2,28.9,28.22,ENE,65,0.0,1.0,95,0.00,,,0.00,0,Wunderground v.1.15,2014-02-14 08:20:00,
2014-02-14 03:30:00,30.3,29.0,28.23,ENE,75,0.0,0.0,95,0.00,,,0.00,0,Wunderground v.1.15,2014-02-14 08:30:00,
2014-02-14 03:40:00,30.4,29.1,28.23,ENE,71,0.0,0.0,95,0.00,,,0.00,0,Wunderground v.1.15,2014-02-14 08:40:00,
2014-02-14 03:45:00,30.5,29.2,28.23,NE,52,1.0,5.0,95,0.00,,,0.00,0,Wunderground v.1.15,2014-02-14 08:45:00,
2014-02-14 03:55:00,29.6,28.3,28.24,ENE,65,2.0,2.0,95,0.00,,,0.00,0,Wunderground v.1.15,2014-02-14 08:55:00,
2014-02-14 04:00:00,29.0,27.7,28.24,ENE,73,1.0,3.0,95,0.00,,,0.00,0,Wunderground v.1.15,2014-02-14 09:00:00,
2014-02-14 04:10:00,27.9,26.4,28.25,ENE,61,1.0,1.0,94,0.00,,,0.00,0,Wunderground v.1.15,2014-02-14 09:10:00,
2014-02-14 04:20:00,27.2,25.7,28.25,ENE,72,1.0,1.0,94,0.00,,,0.00,0,Wunderground v.1.15,2014-02-14 09:20:00,
2014-02-14 04:30:00,26.8,25.3,28.25,ENE,61,0.0,0.0,94,0.00,,,0.00,0,Wunderground v.1.15,2014-02-14 09:30:00,
2014-02-14 04:35:00,26.5,25.0,28.25,East,87,0.0,0.0,94,0.00,,,0.00,0,Wunderground v.1.15,2014-02-14 09:35:00,
2014-02-14 04:45:00,26.1,24.6,28.25,ENE,68,0.0,0.0,94,0.00,,,0.00,0,Wunderground v.1.15,2014-02-14 09:45:00,
2014-02-14 04:50:00,25.8,24.3,28.25,ENE,74,0.0,0.0,94,0.00,,,0.00,0,Wunderground v.1.15,2014-02-14 09:50:00,
2014-02-14 05:00:00,25.6,24.1,28.25,East,85,0.0,1.0,94,0.00,,,0.00,0,Wunderground v.1.15,2014-02-14 10:00:00,
2014-02-14 05:05:00,25.4,23.9,28.25,ENE,57,0.0,1.0,94,0.00,,,0.00,0,Wunderground v.1.15,2014-02-14 10:05:00,
2014-02-14 05:10:00,25.2,23.7,28.25,NE,54,0.0,2.0,94,0.00,,,0.00,0,Wunderground v.1.15,2014-02-14 10:10:00,
2014-02-14 05:20:00,25.0,23.5,28.25,NE,40,0.0,0.0,94,0.00,,,0.00,0,Wunderground v.1.15,2014-02-14 10:20:00,
2014-02-14 05:25:00,24.9,23.4,28.25,NE,55,0.0,0.0,94,0.00,,,0.00,0,Wunderground v.1.15,2014-02-14 10:25:00,
2014-02-14 05:35:00,24.9,23.4,28.25,ENE,61,0.0,1.0,94,0.00,,,0.00,0,Wunderground v.1.15,2014-02-14 10:35:00,
2014-02-14 05:45:00,24.9,23.4,28.26,NE,44,0.0,0.0,94,0.00,,,0.00,0,Wunderground v.1.15,2014-02-14 10:45:00,
2014-02-14 05:50:00,24.8,23.3,28.26,ENE,74,0.0,0.0,94,0.00,,,0.00,0,Wunderground v.1.15,2014-02-14 10:50:00,
2014-02-14 06:00:00,24.8,23.3,28.26,ENE,74,0.0,1.0,94,0.00,,,0.00,0,Wunderground v.1.15,2014-02-14 11:00:00,
2014-02-14 06:05:00,24.8,23.3,28.26,NE,46,0.0,1.0,94,0.00,,,0.00,0,Wunderground v.1.15,2014-02-14 11:05:00,
2014-02-14 06:10:00,24.7,23.2,28.26,ENE,68,1.0,1.0,94,0.00,,,0.00,0,Wunderground v.1.15,2014-02-14 11:10:00,
2014-02-14 06:20:00,24.5,23.0,28.26,ENE,59,1.0,1.0,94,0.00,,,0.00,0,Wunderground v.1.15,2014-02-14 11:20:00,
2014-02-14 06:30:00,24.2,22.5,28.27,ENE,76,1.0,2.0,93,0.00,,,0.00,0,Wunderground v.1.15,2014-02-14 11:30:00,
2014-02-14 06:40:00,24.0,22.3,28.28,ENE,60,1.0,2.0,93,0.00,,,0.00,0,Wunderground v.1.15,2014-02-14 11:40:00,
2014-02-14 06:50:00,23.9,22.2,28.29,ENE,67,1.0,1.0,93,0.00,,,0.00,0,Wunderground v.1.15,2014-02-14 11:50:00,
2014-02-14 07:00:00,23.6,21.9,28.29,East,84,1.0,2.0,93,0.00,,,0.00,0,Wunderground v.1.15,2014-02-14 12:00:00,
2014-02-14 07:05:00,23.5,21.8,28.30,ENE,65,2.0,3.0,93,0.00,,,0.00,0,Wunderground v.1.15,2014-02-14 12:05:00,
2014-02-14 07:15:00,22.9,20.9,28.31,NE,38,2.0,2.0,92,0.00,,,0.00,0,Wunderground v.1.15,2014-02-14 12:15:00,
2014-02-14 07:25:00,22.7,20.7,28.32,ENE,65,1.0,1.0,92,0.00,,,0.00,0,Wunderground v.1.15,2014-02-14 12:25:00,
2014-02-14 07:35:00,22.5,20.5,28.32,ENE,78,2.0,2.0,92,0.00,,,0.00,5,Wunderground v.1.15,2014-02-14 12:35:00,
2014-02-14 07:45:00,22.5,20.5,28.33,NE,36,2.0,2.0,92,0.00,,,0.00,9,Wunderground v.1.15,2014-02-14 12:45:00,
2014-02-14 07:50:00,22.5,20.5,28.34,ENE,59,2.0,5.0,92,0.00,,,0.00,9,Wunderground v.1.15,2014-02-14 12:50:00,
2014-02-14 08:00:00,22.5,20.5,28.34,ENE,71,3.0,6.0,92,0.00,,,0.00,12,Wunderground v.1.15,2014-02-14 13:00:00,
2014-02-14 08:10:00,22.3,20.3,28.34,East,90,5.0,7.0,92,0.00,,,0.00,16,Wunderground v.1.15,2014-02-14 13:10:00,
2014-02-14 08:20:00,22.1,20.1,28.36,ENE,66,4.0,4.0,92,0.00,,,0.00,16,Wunderground v.1.15,2014-02-14 13:20:00,
2014-02-14 08:30:00,21.9,19.9,28.36,ENE,73,3.0,5.0,92,0.00,,,0.00,21,Wunderground v.1.15,2014-02-14 13:30:00,
2014-02-14 08:40:00,21.6,19.6,28.37,NE,55,5.0,5.0,92,0.00,,,0.00,26,Wunderground v.1.15,2014-02-14 13:40:00,
2014-02-14 08:45:00,21.6,19.6,28.37,NNE,28,5.0,5.0,92,0.00,,,0.00,35,Wunderground v.1.15,2014-02-14 13:45:00,
2014-02-14 08:50:00,21.5,19.5,28.37,NE,52,5.0,5.0,92,0.00,,,0.00,42,Wunderground v.1.15,2014-02-14 13:50:00,
2014-02-14 09:00:00,21.6,19.6,28.38,NE,44,5.0,6.0,92,0.00,,,0.00,49,Wunderground v.1.15,2014-02-14 14:00:00,
2014-02-14 09:10:00,21.6,19.6,28.39,East,84,5.0,5.0,92,0.00,,,0.00,35,Wunderground v.1.15,2014-02-14 14:10:00,
2014-02-14 09:20:00,21.5,19.5,28.40,NE,48,5.0,6.0,92,0.00,,,0.00,40,Wunderground v.1.15,2014-02-14 14:20:00,
2014-02-14 09:25:00,21.5,19.5,28.40,ENE,65,5.0,7.0,92,0.00,,,0.00,39,Wunderground v.1.15,2014-02-14 14:25:00,
2014-02-14 09:35:00,21.6,19.6,28.40,NE,48,4.0,5.0,92,0.00,,,0.00,47,Wunderground v.1.15,2014-02-14 14:35:00,
2014-02-14 09:45:00,21.8,19.8,28.41,ENE,66,5.0,5.0,92,0.00,,,0.00,54,Wunderground v.1.15,2014-02-14 14:45:00,
2014-02-14 09:50:00,21.8,19.6,28.42,NE,49,5.0,5.0,91,0.00,,,0.00,54,Wunderground v.1.15,2014-02-14 14:50:00,
2014-02-14 09:55:00,21.8,19.6,28.42,NE,44,7.0,7.0,91,0.00,,,0.00,54,Wunderground v.1.15,2014-02-14 14:55:00,
2014-02-14 10:05:00,22.1,20.1,28.43,ENE,61,5.0,14.0,92,0.00,,,0.00,76,Wunderground v.1.15,2014-02-14 15:05:00,
2014-02-14 10:15:00,22.5,20.5,28.43,ENE,64,8.0,13.0,92,0.00,,,0.00,95,Wunderground v.1.15,2014-02-14 15:15:00,
2014-02-14 10:20:00,22.8,20.8,28.43,East,86,7.0,11.0,92,0.00,,,0.00,90,Wunderground v.1.15,2014-02-14 15:20:00,
2014-02-14 10:30:00,23.2,21.2,28.44,ENE,65,7.0,8.0,92,0.00,,,0.00,128,Wunderground v.1.15,2014-02-14 15:30:00,
2014-02-14 10:40:00,23.6,21.6,28.44,ENE,74,9.0,9.0,92,0.00,,,0.00,114,Wunderground v.1.15,2014-02-14 15:40:00,
2014-02-14 10:50:00,24.4,22.4,28.45,ENE,72,7.0,12.0,92,0.00,,,0.00,130,Wunderground v.1.15,2014-02-14 15:50:00,
2014-02-14 10:55:00,24.5,22.5,28.46,NE,41,8.0,12.0,92,0.00,,,0.00,84,Wunderground v.1.15,2014-02-14 15:55:00,
2014-02-14 11:00:00,24.5,22.2,28.46,NE,46,8.0,8.0,91,0.00,,,0.00,114,Wunderground v.1.15,2014-02-14 16:00:00,
2014-02-14 11:10:00,25.2,22.9,28.46,ENE,61,8.0,8.0,91,0.00,,,0.00,172,Wunderground v.1.15,2014-02-14 16:10:00,
2014-02-14 11:20:00,26.1,24.1,28.46,ENE,74,8.0,17.0,92,0.00,,,0.00,190,Wunderground v.1.15,2014-02-14 16:20:00,
2014-02-14 11:30:00,26.9,24.6,28.47,East,90,9.0,11.0,91,0.00,,,0.00,155,Wunderground v.1.15,2014-02-14 16:30:00,
2014-02-14 11:40:00,26.7,24.2,28.47,ENE,58,11.0,11.0,90,0.00,,,0.00,135,Wunderground v.1.15,2014-02-14 16:40:00,
2014-02-14 11:45:00,26.8,24.3,28.47,East,91,9.0,11.0,90,0.00,,,0.00,120,Wunderground v.1.15,2014-02-14 16:45:00,
2014-02-14 11:50:00,26.9,24.4,28.48,ENE,60,9.0,16.0,90,0.00,,,0.00,98,Wunderground v.1.15,2014-02-14 16:50:00,
2014-02-14 12:00:00,26.7,24.2,28.49,NE,55,12.0,12.0,90,0.00,,,0.00,84,Wunderground v.1.15,2014-02-14 17:00:00,
2014-02-14 12:10:00,26.7,23.9,28.49,NNE,25,11.0,14.0,89,0.00,,,0.00,70,Wunderground v.1.15,2014-02-14 17:10:00,
2014-02-14 12:20:00,27.1,24.6,28.49,East,92,11.0,11.0,90,0.00,,,0.00,79,Wunderground v.1.15,2014-02-14 17:20:00,
2014-02-14 12:25:00,27.4,24.9,28.51,East,90,11.0,11.0,90,0.00,,,0.00,104,Wunderground v.1.15,2014-02-14 17:25:00,
2014-02-14 12:35:00,27.9,25.1,28.53,NE,54,8.0,10.0,89,0.00,,,0.00,65,Wunderground v.1.15,2014-02-14 17:35:00,
2014-02-14 12:45:00,27.6,24.8,28.55,ENE,77,7.0,8.0,89,0.00,,,0.00,40,Wunderground v.1.15,2014-02-14 17:45:00,
2014-02-14 12:55:00,27.2,24.4,28.56,NE,44,10.0,19.0,89,0.00,,,0.00,47,Wunderground v.1.15,2014-02-14 17:55:00,
2014-02-14 13:05:00,27.2,24.4,28.56,NE,39,9.0,11.0,89,0.00,,,0.00,56,Wunderground v.1.15,2014-02-14 18:05:00,
2014-02-14 13:15:00,27.3,24.5,28.58,ENE,72,7.0,7.0,89,0.00,,,0.00,51,Wunderground v.1.15,2014-02-14 18:15:00,
2014-02-14 13:20:00,27.4,24.6,28.58,East,79,6.0,9.0,89,0.00,,,0.00,54,Wunderground v.1.15,2014-02-14 18:20:00,
2014-02-14 13:25:00,27.6,24.8,28.58,ENE,59,7.0,9.0,89,0.00,,,0.00,81,Wunderground v.1.15,2014-02-14 18:25:00,
2014-02-14 13:35:00,28.1,25.0,28.59,ENE,71,7.0,9.0,88,0.00,,,0.00,90,Wunderground v.1.15,2014-02-14 18:35:00,
2014-02-14 13:45:00,28.9,26.1,28.60,NE,42,6.0,10.0,89,0.00,,,0.00,81,Wunderground v.1.15,2014-02-14 18:45:00,
2014-02-14 13:50:00,29.1,26.0,28.60,East,79,7.0,7.0,88,0.00,,,0.00,84,Wunderground v.1.15,2014-02-14 18:50:00,
2014-02-14 14:00:00,29.6,26.2,28.60,ENE,67,10.0,10.0,87,0.00,,,0.00,123,Wunderground v.1.15,2014-02-14 19:00:00,
2014-02-14 14:10:00,31.4,28.3,28.61,ENE,78,9.0,19.0,88,0.00,,,0.00,234,Wunderground v.1.15,2014-02-14 19:10:00,
2014-02-14 14:20:00,31.5,27.8,28.61,ENE,68,10.0,15.0,86,0.00,,,0.00,176,Wunderground v.1.15,2014-02-14 19:20:00,
2014-02-14 14:25:00,31.2,26.9,28.62,East,91,13.0,15.0,84,0.00,,,0.00,107,Wunderground v.1.15,2014-02-14 19:25:00,
2014-02-14 14:30:00,31.5,27.8,28.63,ENE,69,14.0,14.0,86,0.00,,,0.00,172,Wunderground v.1.15,2014-02-14 19:30:00,
2014-02-14 14:40:00,32.1,27.8,28.64,ENE,65,12.0,12.0,84,0.00,,,0.00,160,Wunderground v.1.15,2014-02-14 19:40:00,
2014-02-14 14:45:00,32.3,28.3,28.64,NNE,17,11.0,12.0,85,0.00,,,0.00,107,Wunderground v.1.15,2014-02-14 19:45:00,
2014-02-14 14:55:00,32.4,28.1,28.65,ENE,63,10.0,10.0,84,0.00,,,0.00,155,Wunderground v.1.15,2014-02-14 19:55:00,
2014-02-14 15:05:00,32.5,27.9,28.66,NE,52,11.0,18.0,83,0.00,,,0.00,132,Wunderground v.1.15,2014-02-14 20:05:00,
2014-02-14 15:15:00,32.2,27.3,28.66,NE,53,11.0,12.0,82,0.00,,,0.01,102,Wunderground v.1.15,2014-02-14 20:15:00,
2014-02-14 15:25:00,32.2,27.3,28.66,ENE,69,10.0,12.0,82,0.05,,,0.02,132,Wunderground v.1.15,2014-02-14 20:25:00,
2014-02-14 15:35:00,32.1,26.6,28.68,NE,53,10.0,11.0,80,0.06,,,0.03,67,Wunderground v.1.15,2014-02-14 20:35:00,
2014-02-14 15:40:00,32.0,26.8,28.68,ENE,68,11.0,11.0,81,0.05,,,0.03,67,Wunderground v.1.15,2014-02-14 20:40:00,
2014-02-14 15:50:00,32.1,27.2,28.69,ENE,68,9.0,10.0,82,0.00,,,0.03,127,Wunderground v.1.15,2014-02-14 20:50:00,
2014-02-14 16:00:00,31.9,26.4,28.70,NE,41,10.0,10.0,80,0.00,,,0.04,83,Wunderground v.1.15,2014-02-14 21:00:00,
2014-02-14 16:05:00,31.4,25.9,28.70,ENE,70,10.0,12.0,80,0.00,,,0.04,40,Wunderground v.1.15,2014-02-14 21:05:00,
2014-02-14 16:15:00,31.3,25.8,28.71,NE,54,14.0,14.0,80,0.00,,,0.04,72,Wunderground v.1.15,2014-02-14 21:15:00,
2014-02-14 16:25:00,31.1,25.7,28.72,NE,38,13.0,19.0,80,0.00,,,0.04,40,Wunderground v.1.15,2014-02-14 21:25:00,
2014-02-14 16:35:00,30.4,25.3,28.73,ENE,65,14.0,14.0,81,0.00,,,0.04,30,Wunderground v.1.15,2014-02-14 21:35:00,
2014-02-14 16:45:00,30.0,25.2,28.73,ENE,78,10.0,12.0,82,0.00,,,0.04,21,Wunderground v.1.15,2014-02-14 21:45:00,
2014-02-14 16:55:00,29.9,25.1,28.75,ENE,71,12.0,13.0,82,0.00,,,0.04,12,Wunderground v.1.15,2014-02-14 21:55:00,
2014-02-14 17:00:00,29.8,25.0,28.75,NE,47,10.0,11.0,82,0.00,,,0.04,19,Wunderground v.1.15,2014-02-14 22:00:00,
2014-02-14 17:10:00,29.7,24.9,28.75,ENE,57,11.0,11.0,82,0.00,,,0.04,12,Wunderground v.1.15,2014-02-14 22:10:00,
2014-02-14 17:15:00,29.6,24.8,28.76,East,80,10.0,11.0,82,0.00,,,0.04,5,Wunderground v.1.15,2014-02-14 22:15:00,
2014-02-14 17:25:00,29.3,24.5,28.76,ENE,65,10.0,11.0,82,0.00,,,0.04,0,Wunderground v.1.15,2014-02-14 22:25:00,
2014-02-14 17:35:00,29.2,24.4,28.77,NE,51,8.0,10.0,82,0.00,,,0.04,0,Wunderground v.1.15,2014-02-14 22:35:00,
2014-02-14 17:40:00,29.1,24.3,28.77,East,80,7.0,15.0,82,0.00,,,0.04,0,Wunderground v.1.15,2014-02-14 22:40:00,
2014-02-14 17:50:00,29.0,24.5,28.79,NE,46,9.0,9.0,83,0.00,,,0.04,0,Wunderground v.1.15,2014-02-14 22:50:00,
2014-02-14 18:00:00,29.1,24.6,28.80,North,10,5.0,7.0,83,0.00,,,0.04,0,Wunderground v.1.15,2014-02-14 23:00:00,
2014-02-14 18:05:00,29.1,24.6,28.81,ENE,57,6.0,7.0,83,0.00,,,0.04,0,Wunderground v.1.15,2014-02-14 23:05:00,
2014-02-14 18:15:00,29.1,24.6,28.81,East,87,6.0,11.0,83,0.00,,,0.04,0,Wunderground v.1.15,2014-02-14 23:15:00,
2014-02-14 18:25:00,29.1,24.0,28.81,NE,50,7.0,10.0,81,0.00,,,0.04,0,Wunderground v.1.15,2014-02-14 23:25:00,
2014-02-14 18:35:00,29.0,23.9,28.82,NNE,31,6.0,6.0,81,0.00,,,0.04,0,Wunderground v.1.15,2014-02-14 23:35:00,
2014-02-14 18:45:00,28.9,23.8,28.83,ENE,71,4.0,5.0,81,0.00,,,0.04,0,Wunderground v.1.15,2014-02-14 23:45:00,
2014-02-14 18:55:00,28.7,23.9,28.83,ENE,76,3.0,5.0,82,0.00,,,0.04,0,Wunderground v.1.15,2014-02-14 23:55:00,
2014-02-14 19:00:00,28.6,23.8,28.83,ENE,71,2.0,3.0,82,0.00,,,0.04,0,Wunderground v.1.15,2014-02-15 00:00:00,
2014-02-14 19:10:00,28.3,23.5,28.84,ENE,63,3.0,3.0,82,0.00,,,0.04,0,Wunderground v.1.15,2014-02-15 00:10:00,
2014-02-14 19:20:00,28.1,23.3,28.85,NNE,13,2.0,3.0,82,0.00,,,0.04,0,Wunderground v.1.15,2014-02-15 00:20:00,
2014-02-14 19:30:00,27.9,23.1,28.86,NNW,340,1.0,2.0,82,0.00,,,0.04,0,Wunderground v.1.15,2014-02-15 00:30:00,
2014-02-14 19:35:00,27.8,23.0,28.87,NE,38,1.0,6.0,82,0.00,,,0.04,0,Wunderground v.1.15,2014-02-15 00:35:00,
2014-02-14 19:45:00,27.8,23.3,28.89,NE,46,2.0,4.0,83,0.00,,,0.04,0,Wunderground v.1.15,2014-02-15 00:45:00,
2014-02-14 19:50:00,27.8,23.3,28.90,East,82,1.0,3.0,83,0.00,,,0.04,0,Wunderground v.1.15,2014-02-15 00:50:00,
2014-02-14 20:00:00,27.9,23.4,28.92,ENE,74,2.0,3.0,83,0.00,,,0.04,0,Wunderground v.1.15,2014-02-15 01:00:00,
2014-02-14 20:05:00,28.0,23.5,28.92,ESE,112,2.0,3.0,83,0.00,,,0.04,0,Wunderground v.1.15,2014-02-15 01:05:00,
2014-02-14 20:10:00,28.0,23.5,28.93,East,80,2.0,2.0,83,0.00,,,0.04,0,Wunderground v.1.15,2014-02-15 01:10:00,
2014-02-14 20:20:00,28.0,23.5,28.94,ENE,72,5.0,7.0,83,0.00,,,0.04,0,Wunderground v.1.15,2014-02-15 01:20:00,
2014-02-14 20:30:00,28.3,23.8,28.95,ENE,75,3.0,3.0,83,0.00,,,0.04,0,Wunderground v.1.15,2014-02-15 01:30:00,
2014-02-14 20:35:00,28.3,23.8,28.95,East,79,2.0,3.0,83,0.00,,,0.04,0,Wunderground v.1.15,2014-02-15 01:35:00,
2014-02-14 20:45:00,28.4,23.9,28.96,ENE,69,2.0,3.0,83,0.00,,,0.04,0,Wunderground v.1.15,2014-02-15 01:45:00,
2014-02-14 20:55:00,28.4,24.2,28.95,East,81,2.0,3.0,84,0.00,,,0.04,0,Wunderground v.1.15,2014-02-15 01:55:00,
2014-02-14 21:00:00,28.4,24.2,28.95,ENE,76,3.0,5.0,84,0.00,,,0.04,0,Wunderground v.1.15,2014-02-15 02:00:00,
2014-02-14 21:10:00,28.3,24.1,28.97,East,90,3.0,3.0,84,0.00,,,0.04,0,Wunderground v.1.15,2014-02-15 02:10:00,
2014-02-14 21:20:00,28.4,23.9,28.96,ENE,72,3.0,3.0,83,0.00,,,0.04,0,Wunderground v.1.15,2014-02-15 02:20:00,
2014-02-14 21:25:00,28.4,24.2,28.97,ENE,72,3.0,3.0,84,0.00,,,0.04,0,Wunderground v.1.15,2014-02-15 02:25:00,
2014-02-14 21:30:00,28.3,24.1,28.97,ENE,75,3.0,3.0,84,0.00,,,0.04,0,Wunderground v.1.15,2014-02-15 02:30:00,
2014-02-14 21:40:00,28.2,24.0,28.97,East,80,3.0,6.0,84,0.00,,,0.04,0,Wunderground v.1.15,2014-02-15 02:40:00,
2014-02-14 21:50:00,28.2,24.0,28.97,ENE,74,2.0,2.0,84,0.00,,,0.04,0,Wunderground v.1.15,2014-02-15 02:50:00,
2014-02-14 22:00:00,28.1,23.9,28.98,ENE,66,2.0,6.0,84,0.00,,,0.04,0,Wunderground v.1.15,2014-02-15 03:00:00,
2014-02-14 22:10:00,28.0,24.1,28.97,ENE,67,2.0,2.0,85,0.00,,,0.04,0,Wunderground v.1.15,2014-02-15 03:10:00,
2014-02-14 22:20:00,28.0,24.1,28.97,ENE,73,3.0,3.0,85,0.00,,,0.04,0,Wunderground v.1.15,2014-02-15 03:20:00,
2014-02-14 22:30:00,27.8,23.9,28.98,ENE,70,4.0,4.0,85,0.00,,,0.04,0,Wunderground v.1.15,2014-02-15 03:30:00,
2014-02-14 22:35:00,27.8,23.6,28.99,ENE,64,4.0,4.0,84,0.00,,,0.04,0,Wunderground v.1.15,2014-02-15 03:35:00,
2014-02-14 22:45:00,27.9,23.7,28.98,ENE,78,4.0,4.0,84,0.00,,,0.04,0,Wunderground v.1.15,2014-02-15 03:45:00,
2014-02-14 22:55:00,27.8,23.6,28.99,NE,55,2.0,4.0,84,0.00,,,0.04,0,Wunderground v.1.15,2014-02-15 03:55:00,
2014-02-14 23:05:00,27.7,23.5,28.99,ENE,63,3.0,3.0,84,0.00,,,0.04,0,Wunderground v.1.15,2014-02-15 04:05:00,
2014-02-14 23:10:00,27.6,23.4,29.00,ENE,78,3.0,3.0,84,0.00,,,0.04,0,Wunderground v.1.15,2014-02-15 04:10:00,
2014-02-14 23:20:00,27.6,23.4,29.00,ENE,69,3.0,5.0,84,0.00,,,0.04,0,Wunderground v.1.15,2014-02-15 04:20:00,
2014-02-14 23:30:00,27.4,23.2,29.00,NE,56,4.0,4.0,84,0.00,,,0.04,0,Wunderground v.1.15,2014-02-15 04:30:00,
2014-02-14 23:40:00,27.0,23.1,29.00,East,86,2.0,2.0,85,0.00,,,0.04,0,Wunderground v.1.15,2014-02-15 04:40:00,
2014-02-14 23:45:00,26.8,22.9,29.00,East,82,3.0,4.0,85,0.00,,,0.04,0,Wunderground v.1.15,2014-02-15 04:45:00,
2014-02-14 23:55:00,26.5,22.6,29.01,East,80,2.0,3.0,85,0.00,,,0.04,0,Wunderground v.1.15,2014-02-15 04:55:00,